Showing default

ESTRELA DU SOL-TELSTAR14, 28137

Orbit data source: Space-Track

ESTRELA DU SOL-TELSTAR14, 28137 is a payload satellite owned by Loral Sky Brazil (US,BR) in GEO that was launched on Sun, 11 Jan 2004 UTC via a ZENIT-3SL launch vehicle from the Sea Launch (SEAL). Payload-class satellites include a variety of spacecraft equipped with specific instruments for various scientific and technological missions. These include communications satellites like Starlink; space stations such as the ISS; scientific satellites like the Hubble; Earth observation satellites from companies like Planet Labs, Umbra, and HawkEye 360; GPS; miniature CubeSats for education and research; and military/defense satellites.

Not visible in the next 10 days
Identifier
28137, 2004-001A
Orbit
GEO
Country
Flag of UnknownUnknown / USBZ
Related business
Manufacturer
SS/Loral
Mission
Non-operational Commercial Communications
Bus & Motor
SSL-1300, R-4D-11-164
Mass
4,694 kg wet, ~2,000 kg dry
Launch date (UTC)
2004-01-11 (22 years ago)
Launch vehicle
ZENIT-3SL
Launch site
Sea Launch (SEAL)
Object type
Payload
Rocket body
Debris
Shape & HBR
Box + 2 Pan, 15.5 m
Radar Cross Section
40.765 m², Large (>1 m²)

Expand to show TLE details & history
Last TLE update: 12 hours ago

TLE from 12 hours ago
0 ESTRELA DU SOL-TELSTAR14
1 28137U 04001A   25302.54889610 -.00000091  00000-0  00000+0 0  9999
2 28137  10.6083  46.5539 0001295  71.5338 223.5634  0.98830889 79304
Epoch: 2025-10-29T13:10Z
TLE epoch observation values (Epoch: 2025-10-29T13:10:24.623Z)
Latitude
-9.59655°
Longitude
106.26794°
Altitude
36,200.763 km
Speed
3.06 km/s
True Right ascension
22h 47m 57s
True Declination
-9° 35' 14"
Sunlit
Object was in daylight at epoch
Visualization orbit readout
Latitude
Unknown
Longitude
Unknown
Altitude
Unknown
Speed
Unknown
Apparent Right ascension
Unknown
Apparent Declination
Unknown
Sunlit
N/A
Visualization observer readout
Local Sidereal Time
21:05:37
Azimuth
Unknown
Elevation
Unknown
Doppler factor
Unknown
Orbital elements
Apogee altitude
36,201.952 km
Perigee altitude
36,190.925 km
Semi-major axis
42,574.575 km
Eccentricity
0.00013
Inclination
10.6083°
RAAN
46.5539°
Arg. of periapsis
71.5338°
True anomaly
223.55317°
Mean anomaly
223.5634°
Eccentric anomaly
223.55829°
Mean motion
0.24707 °/min
Orbital period
1,457.08 mins
BSTAR
0
Loading maneuver chart data...
Computing Atmospheric mass density...
Loading historical data...
Loading historical data...
Loading historical data...
Loading historical data...
Loading historical data...
Loading historical data...
Loading historical data...
Other satellites on launch #1 in the year 2004 (2004-01-11 UTC)

Documentation

Showing up to 5 results
|